Regional Weather Roundup
Issued by NWS Upton, NY

Current Version | Previous Version | Text Only | Print | Product List | Glossary On
Versions: 1 2 3 4 5 6 7 8 9 10 11 12 13 14 15 16 17 18 19 20 21 22 23 24 25 26 27 28 29 30 31 32 33 34 35 36 37 38 39 40 41 42 43 44 45 46 47 48 49 50
000
ASUS41 KOKX 220108
RWROKX

REGIONAL WEATHER ROUNDUP
NATIONAL WEATHER SERVICE NEW YORK NY
900 PM EDT SAT OCT 21 2017

NOTE: "FAIR" INDICATES FEW OR NO CLOUDS BELOW 12,000 FEET WITH NO
SIGNIFICANT WEATHER AND/OR OBSTRUCTIONS TO VISIBILITY.

NYZ071-072-176-178-NJZ106-104-220200-
NEW YORK CITY METRO AREA

CITY           SKY/WX    TMP DP  RH WIND       PRES   REMARKS
Central Park   CLEAR     66  43  43 CALM      30.37R
Bronx Bot Gard   N/A     61  43  51 N1        30.36S
LaGuardia APRT PTCLDY    67  47  48 S7        30.34R
Kennedy INTL   PTCLDY    62  58  86 SW8       30.36R
Breezy Point     N/A     63 N/A N/A SW6         N/A
Newark/Liberty MOCLDY    64  45  49 S6        30.35R
Teterboro      CLEAR     59  48  67 CALM      30.34R
$$

NYZ177-179-078>081-220200-
LONG ISLAND NEW YORK

CITY           SKY/WX    TMP DP  RH WIND       PRES   REMARKS
Jones Beach      N/A     63 N/A N/A SW6         N/A
Matinecock PT    N/A     64 N/A N/A SW5         N/A
Farmingdale    CLEAR     58  54  86 CALM      30.36R
MacArthur/ISP  CLOUDY    58  56  93 W3        30.35R
Shirley        CLOUDY    61  57  87 SW3       30.35S
Mt Sinai Harb    N/A     64 N/A N/A SW9G15      N/A
Westhampton    CLOUDY    50  46  86 CALM      30.36S
East Hampton   FAIR      56  54  91 SW3       30.35R
Montauk          N/A     62  56  80 VRB5      30.36R
$$

NYZ052-065-067-220200-
HUDSON VALLEY

CITY           SKY/WX    TMP DP  RH WIND       PRES   REMARKS
White Plains   CLEAR     55  43  63 CALM      30.35R
Larchmont Harb   N/A     64 N/A N/A MISG        N/A
Croton On Huds   N/A     61 N/A N/A SE2         N/A
Newburgh       NOT AVBL
Montgomery     CLEAR     53  46  77 CALM      30.33R
Poughkeepsie   CLEAR     52  46  80 CALM      30.32R
Albany         CLOUDY    53  48  83 CALM      30.31S
$$

NJZ001-105-106-008-010-013-015-019>022-104-220200-
NEW JERSEY

CITY           SKY/WX    TMP DP  RH WIND       PRES   REMARKS
Newark/Liberty MOCLDY    64  45  49 S6        30.35R
Teterboro      CLEAR     59  48  67 CALM      30.34R
Caldwell       CLEAR     56  47  71 CALM      30.36R
Somerville     CLEAR     52  48  86 CALM      30.35R
Linden         FAIR      64  46  52 CALM      30.35R
Perth Amboy      N/A     64 N/A N/A SW9         N/A
Sussex         PTCLDY    49  47  93 CALM      30.36R
Andover          N/A     51  48  89 CALM      30.36R
Trenton        CLEAR     59  46  62 CALM      30.36R
Millville      PTCLDY    52  49  89 CALM      30.37R
Atlantic City  CLOUDY    55  52  89 CALM      30.37S
Wrightstown    CLOUDY    56  49  76 CALM      30.34R
Toms River       N/A     51  48  89 CALM      30.38R
Belmar         CLEAR     60  50  69 S6        30.38R
$$

PAZ047>061-062-071-220200-
EASTERN PENNSYLVANIA

CITY           SKY/WX    TMP DP  RH WIND       PRES   REMARKS
Philadelphia   MOCLDY    63  50  62 SW5       30.37R
Allentown      CLOUDY    56  46  69 CALM      30.36R
Scranton       PTCLDY    56  44  64 E3        30.36R
$$

CTZ002-004>006-009-010-012-RIZ004-006-007-MAZ004-011-015-220200-
SOUTHERN NEW ENGLAND
 IN CT

CITY           SKY/WX    TMP DP  RH WIND       PRES   REMARKS
Bradley INTL   CLOUDY    60  46  59 S3        30.32R
Hartford       CLOUDY    58  49  72 S3        30.33R
Danbury        CLOUDY    51  46  83 CALM      30.36R
Wtrbury/Oxford CLEAR     56  48  74 CALM      30.36R
Norwalk Harbor   N/A     63 N/A N/A W2          N/A
Bridgeport     CLOUDY    65  52  62 SW7       30.34S
Meriden        CLEAR     53  48  83 CALM      30.34R
New Haven      CLOUDY    64  54  69 CALM      30.34S
Chester        FAIR      61  50  67 SW7       30.35R
Groton         CLOUDY    59  52  77 CALM      30.34R
Wilimantic     PTCLDY    56  48  74 NE3       30.34R

 IN RI

CITY           SKY/WX    TMP DP  RH WIND       PRES   REMARKS
Providence     CLOUDY    59  49  69 S5        30.33S
Block Island   CLOUDY    62  58  86 W13       30.35R
Westerly       CLOUDY    63  53  70 SW6       30.34S
 IN MA

CITY           SKY/WX    TMP DP  RH WIND       PRES   REMARKS
Boston         CLOUDY    64  47  53 S6        30.30S
Worcester      CLOUDY    62  38  40 W8        30.33S
Westfield      PTCLDY    52  46  80 CALM      30.32R
Provincetown   CLOUDY    59  54  83 S8        30.32S
Nantucket      CLOUDY    60  57  89 SW9       30.35S
$$

ANZ330-335-338-340-345-350-353-355-220200-
COASTAL MARINE OBSERVATIONS


STATION/POSITION TIME  SKY/WX   TEMP    WIND        PRES    VSBY  WAVE
                                AIR SEA DIR/SP/G                  HT/PER
                 (UTC)          (F)     (DEG/KT/KT) (MB)    (MI)  (FT/S)
NY HARB ENTRANCE 2350            65 65  200/ 10/ 12 1026.9          2/ 9
20 S FIRE ISLAND 2350            64 65  220/  8/ 10 1027.9          2/ 8
GREAT SOUTH BAY  0030            63 62  250/  4/  6   N/A
15 E BARNEGAT LI NOT AVBL
HUDSON CANYON    2350            65 66  220/  4/  4 1027.7          2/ 9
KINGS POINT      0030            65 66  200/  7/  9 1028.1
EXECUTION ROCKS  0030            66     190/ 10/ 12   N/A
WESTERN LI SOUND 2345            67     230/  6/ 10   N/A           0
CENTRAL LI SOUND NOT AVBL
EASTERN LI SOUND NOT AVBL
ROBBINS REEF     0030            67     160/  6/  8 1028.0
$$


>>>>>>>>>>>>>>>>>>>>>>>>>>>> KEY <<<<<<<<<<<<<<<<<<<<<<<<<<<
>                                                          <
>     SKY/WX - Sky Condition/Present Weather               <
>     TMP    - Temperature in Fahrenheit                   <
>     DP     - Dew Point in Fahrenheit                     <
>     RH     - Relative Humidity in Percent                <
>     WIND   - Direction (from) and Speed in MPH           <
>     PRES   - Mean Sea Level Pressure (inches of Hg)      <
>     WCI    - Wind Chill Index                            <
>     VSB    - VISIBILITY IN MILES                         <
>     HX     - HEAT INDEX                                  <
>     TC     - TEMPERATURE IN CELSIUS                      <
>     VRB    - VARIABLE WIND DIRECTION                     <
>                                                          <
>>>>>>>>>>>>>>>>>>>>>>>>>>>> KEY <<<<<<<<<<<<<<<<<<<<<<<<<<<



USA.gov is the U.S. government's official web portal to all federal, state and local government web resources and services.